DLH648 UACC-EDDF

Flight info

Callsign DLH648
Flight time N/A
Altitude 38000
Route VETUB7G VETUB P574 OGANU N55 MASAV N161 GASBI/N0478F400 N161 LEYLA T916 MATAL M11 REBLO UM11 CRM UL746 ODERO DCT OPT DCT SOKRU DCT ARSIN DCT LNZ DCT SUBEN DCT AKINI T161 DEBHI DEBHI1B
Aircraft A346/H-SDE2E3FGHIJ3J4J5M1P2RWXYZ/LB1D1

Departure

Time 2026-05-05 09:31
Airport Nursultan Nazarbayev International Airport (UACC)

Arrival

Time N/A
Airport Frankfurt Main Airport (EDDF)
Time Latitude Longitude Altitude Speed Heading
2026-05-05 08:47 51.02593 71.46085 1172 ft 0 kts 358°
2026-05-05 09:20 51.02578 71.46083 1171 ft 4 kts 32°
2026-05-05 09:21 51.02569 71.46063 1173 ft 4 kts 68°
2026-05-05 09:21 51.02558 71.46025 1171 ft 4 kts 58°
2026-05-05 09:21 51.02552 71.46012 1171 ft 0 kts 50°
2026-05-05 09:25 51.02553 71.46014 1176 ft 1 kts 57°
2026-05-05 09:25 51.02552 71.46041 1173 ft 6 kts 104°
2026-05-05 09:25 51.02545 71.46151 1174 ft 13 kts 65°
2026-05-05 09:25 51.02603 71.46274 1173 ft 15 kts 45°
2026-05-05 09:26 51.02683 71.46407 1172 ft 18 kts 54°
2026-05-05 09:26 51.02705 71.46608 1171 ft 16 kts 103°
2026-05-05 09:26 51.02651 71.46747 1171 ft 15 kts 86°
2026-05-05 09:26 51.02725 71.46892 1171 ft 19 kts 44°
2026-05-05 09:27 51.02824 71.47044 1170 ft 21 kts 45°
2026-05-05 09:27 51.02932 71.47215 1171 ft 23 kts 44°
2026-05-05 09:27 51.03050 71.47400 1173 ft 25 kts 44°
2026-05-05 09:27 51.03176 71.47597 1170 ft 26 kts 44°
2026-05-05 09:28 51.03310 71.47805 1172 ft 27 kts 44°
2026-05-05 09:28 51.03417 71.48004 1168 ft 19 kts 70°
2026-05-05 09:28 51.03428 71.48123 1170 ft 0 kts 88°
2026-05-05 09:29 51.03428 71.48124 1170 ft 0 kts 88°
2026-05-05 09:29 51.03429 71.48169 1173 ft 12 kts 89°
2026-05-05 09:29 51.03384 71.48313 1169 ft 16 kts 159°
2026-05-05 09:30 51.03289 71.48230 1172 ft 19 kts 223°
2026-05-05 09:30 51.03059 71.47869 1174 ft 79 kts 225°
2026-05-05 09:30 51.02517 71.47029 1175 ft 136 kts 224°
2026-05-05 09:30 51.01743 71.45780 1297 ft 171 kts 227°
2026-05-05 09:31 51.00950 71.44433 2025 ft 166 kts 226°
2026-05-05 09:31 51.00120 71.43145 2702 ft 168 kts 225°
2026-05-05 09:31 50.99270 71.41824 3261 ft 176 kts 225°
2026-05-05 09:31 50.98359 71.40395 3638 ft 192 kts 225°
2026-05-05 09:32 50.97369 71.38844 4013 ft 208 kts 225°
2026-05-05 09:32 50.96322 71.37115 4343 ft 227 kts 234°
2026-05-05 09:32 50.95732 71.34699 4729 ft 248 kts 263°
2026-05-05 09:32 50.95999 71.31969 5289 ft 262 kts 287°
2026-05-05 09:33 50.96671 71.29261 6127 ft 265 kts 287°
2026-05-05 09:33 50.97340 71.26508 6945 ft 268 kts 287°
2026-05-05 09:33 50.97873 71.23680 7752 ft 267 kts 271°
2026-05-05 09:33 50.97760 71.20764 8595 ft 265 kts 258°
2026-05-05 09:34 50.97431 71.17865 9463 ft 268 kts 256°
2026-05-05 09:34 50.97091 71.14950 10306 ft 270 kts 257°
2026-05-05 09:34 50.96756 71.11941 10872 ft 285 kts 258°
2026-05-05 09:34 50.96418 71.08742 11310 ft 303 kts 258°
2026-05-05 09:35 50.96074 71.05339 11729 ft 321 kts 258°
2026-05-05 09:35 50.95345 70.97944 12552 ft 355 kts 259°
2026-05-05 09:35 50.94964 70.94031 13291 ft 360 kts 259°
2026-05-05 09:36 50.94581 70.90095 14185 ft 361 kts 258°
2026-05-05 09:36 50.94190 70.86139 14991 ft 364 kts 259°
2026-05-05 09:36 50.93792 70.82152 15745 ft 367 kts 257°
2026-05-05 09:36 50.93137 70.78225 16469 ft 369 kts 249°
2026-05-05 09:37 50.92099 70.74481 17196 ft 372 kts 241°
2026-05-05 09:37 50.90719 70.70983 17907 ft 376 kts 235°
2026-05-05 09:37 50.89215 70.67560 18555 ft 380 kts 234°
2026-05-05 09:37 50.87678 70.64116 19152 ft 384 kts 234°
2026-05-05 09:38 50.86126 70.60645 19781 ft 388 kts 235°
2026-05-05 09:38 50.84553 70.57125 20397 ft 393 kts 235°
2026-05-05 09:38 50.82970 70.53583 20993 ft 397 kts 235°
2026-05-05 09:38 50.81365 70.49995 21585 ft 401 kts 235°
2026-05-05 09:39 50.79744 70.46370 22192 ft 405 kts 235°
2026-05-05 09:39 50.78104 70.42709 22760 ft 409 kts 235°
2026-05-05 09:39 50.76448 70.39016 23334 ft 414 kts 236°
2026-05-05 09:39 50.74773 70.35287 23793 ft 418 kts 235°
2026-05-05 09:40 50.73085 70.31533 23980 ft 419 kts 235°
2026-05-05 09:40 50.71398 70.27788 23959 ft 419 kts 236°
2026-05-05 09:40 50.69801 70.23940 23974 ft 418 kts 240°
2026-05-05 09:40 50.68430 70.19965 23975 ft 418 kts 244°
2026-05-05 09:41 50.67232 70.15671 24160 ft 425 kts 249°
2026-05-05 09:41 50.66209 70.11298 24792 ft 424 kts 250°
2026-05-05 09:41 50.65218 70.06973 25366 ft 426 kts 250°
2026-05-05 09:41 50.64210 70.02564 25833 ft 429 kts 250°
2026-05-05 09:42 50.63195 69.98129 26305 ft 432 kts 250°
2026-05-05 09:42 50.62166 69.93652 26783 ft 436 kts 250°
2026-05-05 09:42 50.61129 69.89147 27274 ft 438 kts 250°
2026-05-05 09:42 50.60085 69.84623 27763 ft 441 kts 250°
2026-05-05 09:43 50.59030 69.80064 28232 ft 444 kts 250°
2026-05-05 09:43 50.57962 69.75458 28792 ft 444 kts 250°
2026-05-05 09:43 50.56903 69.70899 29511 ft 441 kts 249°
2026-05-05 09:43 50.55849 69.66377 30241 ft 438 kts 249°
2026-05-05 09:44 50.54801 69.61884 30850 ft 436 kts 249°
2026-05-05 09:44 50.53758 69.57417 31466 ft 433 kts 249°
2026-05-05 09:44 50.52718 69.52977 32067 ft 431 kts 249°
2026-05-05 09:44 50.51683 69.48573 32667 ft 429 kts 249°
2026-05-05 09:45 50.50650 69.44183 33253 ft 427 kts 249°
2026-05-05 09:45 50.49620 69.39816 33829 ft 425 kts 249°
2026-05-05 09:45 50.48593 69.35471 34331 ft 423 kts 249°
2026-05-05 09:45 50.47563 69.31131 34760 ft 423 kts 249°
2026-05-05 09:46 50.46536 69.26809 35129 ft 423 kts 249°
2026-05-05 09:46 50.45504 69.22471 35497 ft 424 kts 249°
2026-05-05 09:46 50.44469 69.18132 35855 ft 424 kts 249°
2026-05-05 09:46 50.43784 69.15264 36080 ft 424 kts 249°
2026-05-05 09:47 50.42744 69.10919 36402 ft 425 kts 249°
2026-05-05 09:47 50.41359 69.05145 36741 ft 428 kts 249°
2026-05-05 09:47 50.40305 69.00758 36979 ft 430 kts 249°
2026-05-05 09:47 50.39248 68.96367 37235 ft 432 kts 249°
2026-05-05 09:48 50.38183 68.91953 37487 ft 433 kts 249°
2026-05-05 09:48 50.37112 68.87523 37722 ft 435 kts 249°
2026-05-05 09:48 50.36387 68.84530 37871 ft 436 kts 249°
2026-05-05 09:48 50.35306 68.80073 37932 ft 438 kts 249°
2026-05-05 09:49 50.33133 68.71141 37946 ft 438 kts 249°
2026-05-05 09:49 50.30953 68.62215 37944 ft 438 kts 249°
2026-05-05 09:50 50.28759 68.53269 37941 ft 438 kts 249°
2026-05-05 09:50 50.26565 68.44359 37938 ft 438 kts 249°
2026-05-05 09:51 50.24381 68.35527 37931 ft 439 kts 249°
2026-05-05 09:51 50.22213 68.26606 37930 ft 438 kts 251°
2026-05-05 09:52 50.20240 68.17511 37936 ft 439 kts 251°
2026-05-05 09:52 50.18289 68.08547 37938 ft 439 kts 251°
2026-05-05 09:53 50.16317 67.99520 37938 ft 439 kts 251°
2026-05-05 09:53 50.14340 67.90509 37938 ft 439 kts 251°
2026-05-05 09:54 50.12352 67.81485 37937 ft 439 kts 251°
2026-05-05 09:54 50.10356 67.72466 37938 ft 440 kts 251°
2026-05-05 09:55 50.08353 67.63455 37936 ft 440 kts 251°
2026-05-05 09:55 50.06344 67.54451 37935 ft 439 kts 251°
2026-05-05 09:56 50.04328 67.45449 37935 ft 440 kts 251°
2026-05-05 09:56 50.02301 67.36446 37936 ft 440 kts 250°
2026-05-05 09:57 50.00268 67.27450 37935 ft 440 kts 250°
2026-05-05 09:57 49.98230 67.18478 37935 ft 440 kts 250°
2026-05-05 09:58 49.96037 67.09580 37935 ft 440 kts 246°
2026-05-05 09:58 49.93574 67.00860 37935 ft 440 kts 246°
2026-05-05 09:59 49.91110 66.92157 37935 ft 440 kts 246°
2026-05-05 09:59 49.88640 66.83468 37935 ft 440 kts 246°
2026-05-05 10:00 49.86161 66.74779 37936 ft 440 kts 246°
2026-05-05 10:00 49.83677 66.66102 37934 ft 439 kts 246°
2026-05-05 10:01 49.81188 66.57446 37933 ft 439 kts 246°
2026-05-05 10:01 49.78694 66.48797 37932 ft 439 kts 246°
2026-05-05 10:02 49.76193 66.40158 37930 ft 439 kts 246°
2026-05-05 10:02 49.73709 66.31592 37929 ft 439 kts 246°
2026-05-05 10:03 49.71264 66.22913 37930 ft 439 kts 246°
2026-05-05 10:03 49.68811 66.14197 37930 ft 439 kts 246°
2026-05-05 10:04 49.66362 66.05540 37933 ft 439 kts 246°
2026-05-05 10:04 49.63923 65.96961 37933 ft 439 kts 246°
2026-05-05 10:05 49.61459 65.88324 37931 ft 439 kts 246°
2026-05-05 10:05 49.58988 65.79696 37930 ft 439 kts 246°
2026-05-05 10:06 49.56512 65.71086 37927 ft 439 kts 246°
2026-05-05 10:06 49.54028 65.62473 37927 ft 439 kts 246°
2026-05-05 10:07 49.51537 65.53870 37927 ft 439 kts 246°
2026-05-05 10:07 49.49039 65.45270 37930 ft 440 kts 246°
2026-05-05 10:08 49.46533 65.36678 37929 ft 440 kts 245°
2026-05-05 10:08 49.44021 65.28094 37927 ft 440 kts 245°
2026-05-05 10:09 49.41503 65.19518 37927 ft 440 kts 245°
2026-05-05 10:09 49.38978 65.10949 37927 ft 440 kts 245°
2026-05-05 10:10 49.36444 65.02380 37927 ft 440 kts 245°
2026-05-05 10:10 49.33893 64.93852 37927 ft 440 kts 244°
2026-05-05 10:11 49.31200 64.85407 37924 ft 440 kts 244°
2026-05-05 10:11 49.28501 64.77017 37931 ft 440 kts 244°
2026-05-05 10:12 49.25786 64.68574 37927 ft 441 kts 244°
2026-05-05 10:12 49.23067 64.60134 37927 ft 441 kts 244°
2026-05-05 10:13 49.20347 64.51712 37924 ft 441 kts 244°
2026-05-05 10:13 49.17617 64.43288 37924 ft 441 kts 244°
2026-05-05 10:14 49.14880 64.34863 37921 ft 443 kts 243°
2026-05-05 10:14 49.12128 64.26425 37922 ft 443 kts 243°
2026-05-05 10:15 49.09369 64.17995 37922 ft 443 kts 243°
2026-05-05 10:15 49.06602 64.09575 37911 ft 443 kts 243°
2026-05-05 10:16 49.03836 64.01173 37919 ft 444 kts 243°
2026-05-05 10:16 49.01056 63.92758 37919 ft 444 kts 243°
2026-05-05 10:17 48.98270 63.84356 37919 ft 444 kts 243°
2026-05-05 10:17 48.95474 63.75950 37919 ft 444 kts 243°
2026-05-05 10:18 48.92673 63.67557 37919 ft 444 kts 243°
2026-05-05 10:18 48.89869 63.59183 37923 ft 443 kts 243°
2026-05-05 10:19 48.87210 63.50804 37924 ft 443 kts 246°
2026-05-05 10:19 48.84689 63.42178 37925 ft 443 kts 246°
2026-05-05 10:20 48.82180 63.33618 37927 ft 443 kts 245°
2026-05-05 10:20 48.79681 63.25125 37926 ft 443 kts 246°
2026-05-05 10:21 48.77164 63.16593 37929 ft 442 kts 246°
2026-05-05 10:21 48.74645 63.08082 37930 ft 442 kts 245°
2026-05-05 10:22 48.72120 62.99581 37932 ft 442 kts 245°
2026-05-05 10:22 48.69586 62.91077 37946 ft 442 kts 245°
2026-05-05 10:23 48.67042 62.82572 37934 ft 443 kts 245°
2026-05-05 10:23 48.64491 62.74072 37933 ft 443 kts 245°
2026-05-05 10:24 48.61907 62.65598 37932 ft 443 kts 244°
2026-05-05 10:24 48.59150 62.57264 37938 ft 443 kts 243°
2026-05-05 10:25 48.56370 62.48937 37936 ft 443 kts 243°
2026-05-05 10:25 48.53596 62.40618 37938 ft 443 kts 243°
2026-05-05 10:26 48.50821 62.32303 37935 ft 443 kts 243°
2026-05-05 10:26 48.48046 62.24006 37935 ft 443 kts 243°
2026-05-05 10:27 48.45261 62.15708 37934 ft 443 kts 243°
2026-05-05 10:27 48.42473 62.07426 37936 ft 443 kts 243°
2026-05-05 10:28 48.39686 61.99166 37935 ft 443 kts 243°
2026-05-05 10:28 48.36887 61.90904 37932 ft 443 kts 243°
2026-05-05 10:29 48.34084 61.82652 37939 ft 442 kts 243°
2026-05-05 10:29 48.31281 61.74433 37937 ft 441 kts 243°
2026-05-05 10:30 48.28470 61.66212 37932 ft 441 kts 243°
2026-05-05 10:30 48.25657 61.58010 37930 ft 441 kts 243°
2026-05-05 10:31 48.22859 61.49880 37927 ft 441 kts 243°
2026-05-05 10:31 48.20036 61.41702 37928 ft 440 kts 243°
2026-05-05 10:32 48.17212 61.33547 37925 ft 440 kts 243°
2026-05-05 10:32 48.14384 61.25406 37924 ft 440 kts 243°
2026-05-05 10:33 48.11549 61.17273 37924 ft 440 kts 243°
2026-05-05 10:33 48.08710 61.09152 37922 ft 439 kts 243°
2026-05-05 10:34 48.05874 61.01064 37922 ft 439 kts 243°
2026-05-05 10:34 48.03034 60.92989 37922 ft 439 kts 243°
2026-05-05 10:35 48.00186 60.84918 37919 ft 438 kts 243°
2026-05-05 10:35 47.97337 60.76869 37917 ft 438 kts 242°
2026-05-05 10:36 47.94963 60.70177 37911 ft 439 kts 242°
2026-05-05 10:36 47.92097 60.62128 37905 ft 439 kts 242°
2026-05-05 10:37 47.89229 60.54094 37910 ft 438 kts 242°
2026-05-05 10:37 47.86356 60.46070 37908 ft 438 kts 242°
2026-05-05 10:38 47.83476 60.38052 37906 ft 439 kts 242°
2026-05-05 10:38 47.80591 60.30041 37905 ft 439 kts 242°
2026-05-05 10:39 47.77696 60.22027 37899 ft 439 kts 242°
2026-05-05 10:39 47.74794 60.14023 37899 ft 439 kts 242°
2026-05-05 10:40 47.71885 60.06032 37900 ft 439 kts 242°
2026-05-05 10:40 47.68974 59.98061 37896 ft 439 kts 242°
2026-05-05 10:41 47.66059 59.90096 37891 ft 439 kts 242°
2026-05-05 10:41 47.63136 59.82134 37891 ft 439 kts 242°
2026-05-05 10:42 47.58743 59.70215 37886 ft 437 kts 242°
2026-05-05 10:43 47.55822 59.62315 37881 ft 436 kts 242°
2026-05-05 10:43 47.52918 59.54487 37881 ft 436 kts 242°
2026-05-05 10:44 47.49989 59.46614 37875 ft 436 kts 242°
2026-05-05 10:44 47.47053 59.38748 37871 ft 436 kts 242°
2026-05-05 10:45 47.44121 59.30912 37877 ft 435 kts 242°
2026-05-05 10:45 47.41181 59.23080 37875 ft 435 kts 242°
2026-05-05 10:46 47.38234 59.15249 37875 ft 435 kts 242°
2026-05-05 10:46 47.35285 59.07437 37872 ft 435 kts 242°
2026-05-05 10:47 47.32336 58.99649 37864 ft 436 kts 242°
2026-05-05 10:47 47.29374 58.91851 37864 ft 435 kts 242°
2026-05-05 10:48 47.26408 58.84063 37861 ft 435 kts 242°
2026-05-05 10:48 47.23437 58.76283 37861 ft 435 kts 241°
2026-05-05 10:49 47.20465 58.68527 37852 ft 434 kts 241°
2026-05-05 10:49 47.17498 58.60805 37853 ft 433 kts 241°
2026-05-05 10:50 47.14531 58.53102 37853 ft 433 kts 241°
2026-05-05 10:50 47.11553 58.45397 37845 ft 433 kts 241°
2026-05-05 10:51 47.08574 58.37707 37845 ft 432 kts 241°
2026-05-05 10:51 47.05596 58.30043 37839 ft 432 kts 241°
2026-05-05 10:52 47.02615 58.22392 37848 ft 432 kts 241°
2026-05-05 10:52 46.99631 58.14758 37837 ft 431 kts 241°
2026-05-05 10:53 46.96642 58.07127 37827 ft 431 kts 241°
2026-05-05 10:53 46.93676 57.99575 37831 ft 431 kts 240°
2026-05-05 10:54 46.90681 57.91978 37825 ft 431 kts 240°
2026-05-05 10:54 46.87684 57.84395 37826 ft 431 kts 240°
2026-05-05 10:55 46.84679 57.76813 37820 ft 431 kts 240°
2026-05-05 10:55 46.81671 57.69238 37817 ft 431 kts 240°
2026-05-05 10:56 46.78654 57.61669 37815 ft 431 kts 240°
2026-05-05 10:56 46.75633 57.54108 37812 ft 431 kts 240°
2026-05-05 10:57 46.72606 57.46555 37811 ft 431 kts 240°
2026-05-05 10:57 46.69574 57.39004 37807 ft 431 kts 240°
2026-05-05 10:58 46.66535 57.31464 37804 ft 432 kts 240°
2026-05-05 10:58 46.63489 57.23922 37804 ft 432 kts 240°
2026-05-05 10:59 46.60438 57.16388 37801 ft 432 kts 240°
2026-05-05 10:59 46.57375 57.08841 37803 ft 431 kts 239°
2026-05-05 11:00 46.54321 57.01347 37804 ft 431 kts 239°
2026-05-05 11:00 46.51148 56.93968 37806 ft 431 kts 236°
2026-05-05 11:01 46.47494 56.87053 37803 ft 432 kts 230°
2026-05-05 11:01 46.43371 56.80693 37803 ft 433 kts 225°
2026-05-05 11:02 46.38854 56.74907 37804 ft 433 kts 222°
2026-05-05 11:02 46.34279 56.69223 37804 ft 433 kts 222°
2026-05-05 11:03 46.29733 56.63590 37804 ft 433 kts 222°
2026-05-05 11:03 46.25151 56.57930 37809 ft 433 kts 222°
2026-05-05 11:04 46.20569 56.52285 37807 ft 432 kts 222°
2026-05-05 11:04 46.15984 56.46658 37800 ft 432 kts 222°
2026-05-05 11:05 46.11406 56.41044 37810 ft 432 kts 222°
2026-05-05 11:05 46.06817 56.35430 37803 ft 432 kts 222°
2026-05-05 11:06 46.02242 56.29847 37809 ft 431 kts 222°
2026-05-05 11:06 45.97671 56.24281 37810 ft 431 kts 222°
2026-05-05 11:07 45.93088 56.18715 37808 ft 431 kts 222°
2026-05-05 11:07 45.88505 56.13160 37810 ft 431 kts 222°
2026-05-05 11:08 45.83920 56.07614 37809 ft 431 kts 222°
2026-05-05 11:08 45.79336 56.02084 37806 ft 431 kts 222°
2026-05-05 11:09 45.74747 55.96561 37807 ft 431 kts 222°
2026-05-05 11:09 45.70152 55.91039 37818 ft 431 kts 222°
2026-05-05 11:10 45.65560 55.85533 37810 ft 430 kts 222°
2026-05-05 11:10 45.60964 55.80037 37812 ft 430 kts 221°
2026-05-05 11:11 45.56367 55.74551 37813 ft 430 kts 221°
2026-05-05 11:11 45.51770 55.69077 37826 ft 430 kts 221°
2026-05-05 11:12 45.47176 55.63618 37811 ft 429 kts 221°
2026-05-05 11:12 45.42583 55.58174 37811 ft 429 kts 221°
2026-05-05 11:13 45.37988 55.52740 37794 ft 429 kts 221°
2026-05-05 11:13 45.33388 55.47310 37814 ft 429 kts 221°
2026-05-05 11:14 45.28790 55.41893 37811 ft 429 kts 221°
2026-05-05 11:14 45.24198 55.36494 37805 ft 429 kts 221°
2026-05-05 11:15 45.19599 55.31099 37810 ft 429 kts 221°
2026-05-05 11:15 45.14997 55.25712 37817 ft 429 kts 221°
2026-05-05 11:16 45.10394 55.20336 37808 ft 429 kts 221°
2026-05-05 11:16 45.05926 55.14761 37807 ft 428 kts 224°
2026-05-05 11:17 45.01571 55.09112 37807 ft 428 kts 224°
2026-05-05 11:17 44.97188 55.03441 37803 ft 426 kts 224°
2026-05-05 11:18 44.92831 54.97807 37804 ft 424 kts 224°
2026-05-05 11:18 44.88474 54.92181 37809 ft 424 kts 224°
2026-05-05 11:19 44.84114 54.86563 37812 ft 424 kts 224°
2026-05-05 11:19 44.79752 54.80953 37827 ft 424 kts 224°
2026-05-05 11:20 44.75395 54.75360 37814 ft 424 kts 224°
2026-05-05 11:20 44.71030 54.69773 37815 ft 424 kts 224°
2026-05-05 11:21 44.66893 54.63880 37818 ft 423 kts 229°
2026-05-05 11:21 44.63187 54.57472 37829 ft 422 kts 234°
2026-05-05 11:22 44.59805 54.50724 37822 ft 422 kts 235°
2026-05-05 11:22 44.56428 54.43972 37826 ft 422 kts 235°
2026-05-05 11:23 44.53054 54.37231 37829 ft 422 kts 235°
2026-05-05 11:23 44.49675 54.30487 37832 ft 422 kts 235°
2026-05-05 11:24 44.46294 54.23753 37818 ft 421 kts 235°
2026-05-05 11:24 44.43486 54.18174 37826 ft 421 kts 235°
2026-05-05 11:25 44.40108 54.11475 37834 ft 421 kts 234°
2026-05-05 11:25 44.36728 54.04785 37847 ft 421 kts 234°
2026-05-05 11:26 44.33352 53.98114 37836 ft 420 kts 234°
2026-05-05 11:26 44.29968 53.91450 37834 ft 420 kts 234°
2026-05-05 11:27 44.26580 53.84792 37833 ft 420 kts 234°
2026-05-05 11:27 44.23188 53.78141 37834 ft 420 kts 234°
2026-05-05 11:28 44.19817 53.71546 37836 ft 420 kts 234°
2026-05-05 11:28 44.16418 53.64911 37834 ft 420 kts 234°
2026-05-05 11:29 44.13019 53.58290 37839 ft 420 kts 234°
2026-05-05 11:29 44.09612 53.51670 37846 ft 420 kts 234°
2026-05-05 11:30 44.06203 53.45059 37840 ft 420 kts 234°
2026-05-05 11:30 44.02790 53.38457 37834 ft 420 kts 234°
2026-05-05 11:31 43.99382 53.31878 37838 ft 420 kts 234°
2026-05-05 11:31 43.95963 53.25290 37849 ft 420 kts 234°
2026-05-05 11:32 43.92538 53.18707 37840 ft 420 kts 234°
2026-05-05 11:32 43.89110 53.12136 37839 ft 420 kts 233°
2026-05-05 11:33 43.85678 53.05579 37841 ft 420 kts 233°
2026-05-05 11:33 43.82239 52.99023 37847 ft 420 kts 233°
2026-05-05 11:34 43.78821 52.92520 37843 ft 420 kts 233°
2026-05-05 11:34 43.75376 52.85981 37844 ft 420 kts 233°
2026-05-05 11:35 43.71928 52.79447 37849 ft 420 kts 233°
2026-05-05 11:35 43.68476 52.72919 37852 ft 421 kts 233°
2026-05-05 11:36 43.65015 52.66398 37845 ft 420 kts 233°
2026-05-05 11:36 43.61548 52.59906 37857 ft 419 kts 233°
2026-05-05 11:37 43.58080 52.53426 37855 ft 419 kts 233°
2026-05-05 11:37 43.54609 52.46950 37855 ft 420 kts 233°
2026-05-05 11:38 43.51127 52.40469 37859 ft 420 kts 233°
2026-05-05 11:38 43.47641 52.33994 37864 ft 420 kts 233°
2026-05-05 11:39 43.44152 52.27526 37868 ft 420 kts 233°
2026-05-05 11:39 43.40656 52.21059 37869 ft 421 kts 233°
2026-05-05 11:40 43.37148 52.14584 37873 ft 422 kts 232°
2026-05-05 11:40 43.33662 52.08164 37875 ft 422 kts 232°
2026-05-05 11:41 43.30145 52.01701 37875 ft 422 kts 232°
2026-05-05 11:41 43.26631 51.95259 37877 ft 421 kts 232°
2026-05-05 11:42 43.23112 51.88820 37880 ft 421 kts 232°
2026-05-05 11:42 43.19590 51.82390 37877 ft 421 kts 232°
2026-05-05 11:43 43.16064 51.75966 37910 ft 421 kts 232°
2026-05-05 11:43 43.12540 51.69560 37887 ft 420 kts 232°
2026-05-05 11:44 43.09018 51.63171 37882 ft 420 kts 232°
2026-05-05 11:44 43.05495 51.56795 37883 ft 420 kts 232°
2026-05-05 11:45 43.01964 51.50419 37905 ft 420 kts 232°
2026-05-05 11:45 42.98441 51.44069 37895 ft 419 kts 232°
2026-05-05 11:46 42.94914 51.37725 37888 ft 419 kts 232°
2026-05-05 11:46 42.91386 51.31396 37886 ft 419 kts 232°
2026-05-05 11:47 42.87852 51.25067 37891 ft 419 kts 232°
2026-05-05 11:47 42.84316 51.18750 37880 ft 418 kts 232°
2026-05-05 11:48 42.79037 51.09342 37902 ft 418 kts 232°
2026-05-05 11:48 42.75499 51.03052 37919 ft 418 kts 232°
2026-05-05 11:49 42.71965 50.96783 37907 ft 417 kts 232°
2026-05-05 11:49 42.68427 50.90521 37905 ft 417 kts 232°
2026-05-05 11:50 42.64884 50.84261 37906 ft 417 kts 232°
2026-05-05 11:50 42.61337 50.78008 37909 ft 417 kts 232°
2026-05-05 11:51 42.57787 50.71762 37907 ft 417 kts 232°
2026-05-05 11:51 42.54235 50.65526 37914 ft 417 kts 231°
2026-05-05 11:52 42.50681 50.59299 37910 ft 418 kts 231°
2026-05-05 11:52 42.48890 50.56164 38078 ft 421 kts 231°
2026-05-05 11:52 42.47094 50.53025 38455 ft 421 kts 231°
2026-05-05 11:53 42.45299 50.49893 38770 ft 420 kts 231°
2026-05-05 11:53 42.43521 50.46750 39006 ft 421 kts 233°
2026-05-05 11:53 42.41812 50.43522 39221 ft 422 kts 233°
2026-05-05 11:53 42.40102 50.40287 39428 ft 423 kts 233°
2026-05-05 11:54 42.38385 50.37049 39629 ft 423 kts 233°
2026-05-05 11:54 42.36669 50.33811 39837 ft 424 kts 233°
2026-05-05 11:54 42.33218 50.27305 39906 ft 426 kts 233°
2026-05-05 11:55 42.29759 50.20797 39913 ft 426 kts 233°
2026-05-05 11:55 42.26297 50.14292 39923 ft 426 kts 233°
2026-05-05 11:56 42.22857 50.07843 39935 ft 426 kts 233°
2026-05-05 11:56 42.19389 50.01354 39934 ft 426 kts 233°
2026-05-05 11:57 42.15900 49.94840 39935 ft 426 kts 233°
2026-05-05 11:57 42.12449 49.88412 39932 ft 426 kts 233°
2026-05-05 11:58 42.08973 49.81947 39926 ft 426 kts 233°
2026-05-05 11:58 42.05491 49.75490 39926 ft 426 kts 233°
2026-05-05 11:59 42.02007 49.69040 39946 ft 426 kts 233°
2026-05-05 11:59 41.98523 49.62604 39939 ft 426 kts 233°
2026-05-05 12:00 41.95037 49.56177 39928 ft 424 kts 233°
2026-05-05 12:00 41.91564 49.49786 39936 ft 423 kts 232°
2026-05-05 12:01 41.88091 49.43410 39939 ft 423 kts 232°
2026-05-05 12:01 41.84613 49.37035 39956 ft 423 kts 232°
2026-05-05 12:02 41.81140 49.30650 39936 ft 423 kts 234°
2026-05-05 12:02 41.77856 49.24081 39937 ft 424 kts 234°
2026-05-05 12:03 41.74577 49.17509 39938 ft 424 kts 234°
2026-05-05 12:03 41.71300 49.10949 39933 ft 424 kts 234°
2026-05-05 12:04 41.68019 49.04390 39943 ft 424 kts 234°
2026-05-05 12:04 41.64740 48.97845 39949 ft 424 kts 234°
2026-05-05 12:05 41.61476 48.91342 39930 ft 423 kts 234°
2026-05-05 12:05 41.58187 48.84802 39930 ft 423 kts 234°
2026-05-05 12:06 41.54894 48.78272 39931 ft 423 kts 234°
2026-05-05 12:06 41.51524 48.71832 39942 ft 423 kts 232°
2026-05-05 12:07 41.48009 48.65525 39934 ft 423 kts 232°
2026-05-05 12:07 41.44489 48.59214 39932 ft 424 kts 232°
2026-05-05 12:08 41.40974 48.52897 39929 ft 424 kts 232°
2026-05-05 12:08 41.37513 48.46533 39919 ft 424 kts 233°
2026-05-05 12:09 41.34044 48.40160 39919 ft 425 kts 233°
2026-05-05 12:09 41.30560 48.33775 39912 ft 426 kts 233°
2026-05-05 12:10 41.27069 48.27396 39909 ft 426 kts 233°
2026-05-05 12:10 41.23569 48.21013 39900 ft 427 kts 232°
2026-05-05 12:11 41.20077 48.14659 39903 ft 429 kts 232°
2026-05-05 12:11 41.16561 48.08237 39906 ft 430 kts 234°
2026-05-05 12:12 41.13421 48.01462 39904 ft 431 kts 240°
2026-05-05 12:12 41.10870 47.94259 39915 ft 431 kts 245°
2026-05-05 12:13 41.08937 47.86707 39897 ft 434 kts 251°
2026-05-05 12:13 41.07501 47.78915 39893 ft 435 kts 253°
2026-05-05 12:14 41.06109 47.71102 39892 ft 435 kts 253°
2026-05-05 12:14 41.04716 47.63300 39906 ft 434 kts 253°
2026-05-05 12:15 41.03323 47.55526 39898 ft 433 kts 253°
2026-05-05 12:15 41.01926 47.47762 39903 ft 433 kts 253°
2026-05-05 12:16 41.00525 47.40011 39930 ft 433 kts 253°
2026-05-05 12:16 40.99353 47.33549 39915 ft 434 kts 253°
2026-05-05 12:17 40.97938 47.25772 39919 ft 434 kts 253°
2026-05-05 12:17 40.96521 47.18006 39916 ft 434 kts 253°
2026-05-05 12:18 40.95096 47.10238 39919 ft 434 kts 253°
2026-05-05 12:18 40.93667 47.02474 39919 ft 434 kts 252°
2026-05-05 12:19 40.92235 46.94722 39919 ft 434 kts 252°
2026-05-05 12:19 40.90794 46.86965 39917 ft 434 kts 253°
2026-05-05 12:20 40.89634 46.79111 39910 ft 436 kts 258°
2026-05-05 12:20 40.88864 46.71146 39911 ft 437 kts 258°
2026-05-05 12:21 40.88108 46.63167 39911 ft 437 kts 259°
2026-05-05 12:21 40.87347 46.55184 39899 ft 437 kts 259°
2026-05-05 12:22 40.86583 46.47200 39895 ft 437 kts 258°
2026-05-05 12:22 40.85813 46.39217 39887 ft 437 kts 258°
2026-05-05 12:23 40.85039 46.31245 39890 ft 437 kts 258°
2026-05-05 12:23 40.84258 46.23265 39896 ft 437 kts 258°
2026-05-05 12:24 40.83471 46.15293 39893 ft 437 kts 258°
2026-05-05 12:24 40.82686 46.07379 39890 ft 437 kts 258°
2026-05-05 12:25 40.81891 45.99426 39897 ft 437 kts 258°
2026-05-05 12:25 40.81090 45.91471 39895 ft 437 kts 258°
2026-05-05 12:26 40.80284 45.83517 39897 ft 437 kts 258°
2026-05-05 12:26 40.79473 45.75558 39894 ft 437 kts 258°
2026-05-05 12:27 40.78657 45.67600 39894 ft 437 kts 258°
2026-05-05 12:27 40.77831 45.59646 39899 ft 437 kts 258°
2026-05-05 12:28 40.77206 45.51648 39893 ft 439 kts 263°
2026-05-05 12:28 40.77164 45.43558 39908 ft 443 kts 268°
2026-05-05 12:29 40.77517 45.35418 39900 ft 445 kts 269°
2026-05-05 12:29 40.77890 45.27256 39902 ft 445 kts 269°
2026-05-05 12:30 40.78256 45.19083 39899 ft 446 kts 269°
2026-05-05 12:30 40.78619 45.10900 39910 ft 446 kts 269°
2026-05-05 12:31 40.78975 45.02719 39926 ft 446 kts 269°
2026-05-05 12:31 40.79326 44.94520 39909 ft 448 kts 269°
2026-05-05 12:32 40.79667 44.86280 39912 ft 449 kts 269°
2026-05-05 12:32 40.80012 44.78032 39902 ft 450 kts 269°
2026-05-05 12:33 40.80345 44.69822 39912 ft 450 kts 269°
2026-05-05 12:33 40.80677 44.61550 39913 ft 451 kts 269°
2026-05-05 12:34 40.81002 44.53262 39916 ft 452 kts 269°
2026-05-05 12:34 40.81322 44.44955 39916 ft 453 kts 268°
2026-05-05 12:35 40.81634 44.36623 39926 ft 454 kts 269°
2026-05-05 12:35 40.81944 44.28285 39925 ft 454 kts 269°
2026-05-05 12:36 40.82248 44.19949 39938 ft 454 kts 269°
2026-05-05 12:36 40.82543 44.11603 39931 ft 455 kts 269°
2026-05-05 12:37 40.82838 44.03234 39940 ft 456 kts 269°
2026-05-05 12:37 40.83126 43.94864 39939 ft 456 kts 269°
2026-05-05 12:38 40.83406 43.86490 39936 ft 456 kts 269°
2026-05-05 12:38 40.83681 43.78112 39939 ft 456 kts 268°
2026-05-05 12:39 40.83947 43.69736 39945 ft 457 kts 269°
2026-05-05 12:39 40.84341 43.61380 39940 ft 459 kts 270°
2026-05-05 12:40 40.84835 43.52908 39940 ft 459 kts 270°
2026-05-05 12:40 40.85309 43.44538 39940 ft 459 kts 270°